Weather History for Toluca Jose Maria, Mexico

Change the Weather History Date:

Friday, November 15, 2013

  Actual Average Record
Temperature  
Mean Temperature 54 °F -  
Max Temperature 68 °F 67 °F 75 °F (1997)
Min Temperature 39 °F 37 °F 30 °F (1997)
Degree Days  
Heating Degree Days 12    
Growing Degree Days 4 (Base 50)    
Moisture  
Dew Point 42 °F    
Average Humidity 72    
Maximum Humidity 93    
Minimum Humidity 37    
Precipitation  
Precipitation 0.00 in - - ()
Sea Level Pressure  
Sea Level Pressure 30.18 in    
Wind  
Wind Speed 2 mph ()    
Max Wind Speed 13 mph    
Max Gust Speed -    
Visibility 6.9 miles    
Events      
Averages and records for this station are not official NWS values.
T = Trace of Precipitation, MM = Missing Value Source: Averaged Metar Reports

Daily Weather History Graph

Daily Weather History Graph

Search for Another Location

Airport:

Trip Planner

Search our weather history database for the weather conditions in past years. The results will help you decide how hot, cold, wet, or windy it might be!

Date:

Astronomy

Nov. 15, 2013 Rise Set
Actual Time 6:46 AM CST 5:59 PM CST
Civil Twilight 6:23 AM CST 6:22 PM CST
Nautical Twilight 5:56 AM CST 6:49 PM CST
Astronomical Twilight 5:30 AM CST 7:15 PM CST
Moon 4:46 PM CST (11/15) 4:57 AM CST (11/15)
Length of Visible Light 11h 59m
Length of Day
11h 13m
Waxing Gibbous, 96% of the Moon is Illuminated
Nov 15
Waxing Gibbous
Nov 17
Full
Nov 25
Last Quarter
Dec 2
New
Dec 9
First Quarter

Hourly Weather History & Observations

Time (CST) Temp. Windchill Dew Point Humidity Pressure Visibility Wind Dir Wind Speed Gust Speed Precip Events Conditions
12:50 AM 42.8 °F - 39.2 °F 87% 30.38 in 10.0 mi Calm Calm - N/A   Partly Cloudy
1:48 AM 42.8 °F - 39.2 °F 87% 30.37 in 10.0 mi Calm Calm - N/A   Partly Cloudy
2:49 AM 42.8 °F - 39.2 °F 87% 29.87 in 10.0 mi Calm Calm - N/A   Partly Cloudy
3:40 AM 42.8 °F - 39.2 °F 87% 30.34 in 10.0 mi Calm Calm - N/A   Partly Cloudy
4:46 AM 39.2 °F - 37.4 °F 93% 30.33 in 10.0 mi Calm Calm - N/A   Partly Cloudy
5:48 AM 39.2 °F 35.9 °F 37.4 °F 93% 29.93 in 8.0 mi NW 4.6 mph - N/A   Partly Cloudy
6:44 AM 39.2 °F - 35.6 °F 87% 30.35 in 2.0 mi Calm Calm - N/A   Scattered Clouds
7:44 AM 41.0 °F - 37.4 °F 87% 30.37 in 3.0 mi Calm Calm - N/A   Haze
8:40 AM 46.4 °F - 42.8 °F 87% 29.99 in 3.0 mi Calm Calm - N/A   Haze
9:46 AM 51.8 °F - 44.6 °F 76% 30.40 in 6.0 mi Calm Calm - N/A   Scattered Clouds
10:42 AM 60.8 °F - 44.6 °F 55% 30.40 in 7.0 mi WNW 4.6 mph - N/A   Scattered Clouds
11:44 AM 64.4 °F - 42.8 °F 45% 29.83 in 7.0 mi ENE 5.8 mph - N/A   Mostly Cloudy
12:43 PM 68.0 °F - 41.0 °F 37% 30.32 in 7.0 mi South 4.6 mph - N/A   Mostly Cloudy
1:43 PM 66.2 °F - 39.2 °F 37% 30.28 in 7.0 mi SSE 6.9 mph - N/A   Mostly Cloudy
2:42 PM 64.4 °F - 44.6 °F 49% 29.78 in 7.0 mi WSW 9.2 mph - N/A   Mostly Cloudy
3:42 PM 60.8 °F - 44.6 °F 55% 30.25 in 7.0 mi West 12.7 mph - N/A   Mostly Cloudy
4:44 PM 60.8 °F - 44.6 °F 55% 30.26 in 7.0 mi West 6.9 mph - N/A   Mostly Cloudy
5:47 PM 59.0 °F - 44.6 °F 59% 29.86 in 7.0 mi NNW 5.8 mph - N/A   Mostly Cloudy
6:45 PM 53.6 °F - 46.4 °F 77% 30.31 in 7.0 mi WNW 8.1 mph - N/A   Mostly Cloudy
7:42 PM 55.4 °F - 46.4 °F 72% 30.34 in 7.0 mi Calm Calm - N/A   Mostly Cloudy
8:41 PM 53.6 °F - 46.4 °F 77% 29.78 in 7.0 mi West 4.6 mph - N/A   Mostly Cloudy
9:52 PM 50.0 °F - 44.6 °F 82% 30.38 in 6.0 mi Calm Calm - N/A   Mostly Cloudy
10:44 PM 48.2 °F - 44.6 °F 87% 30.38 in 5.0 mi ESE 6.9 mph - N/A   Scattered Clouds
11:46 PM 46.4 °F - 41.0 °F 81% 29.87 in 5.0 mi Calm Calm - N/A   Scattered Clouds